Change the Weather History Date:

Thursday, November 1, 2012

  Actual Average Record
Temperature  
Mean Temperature 46 °F -  
Max Temperature 50 °F 53 °F 123 °F (1997)
Min Temperature 42 °F 35 °F 20 °F (1983)
Degree Days  
Heating Degree Days 19    
Moisture  
Dew Point 40 °F    
Average Humidity 77    
Maximum Humidity 87    
Minimum Humidity 71    
Precipitation  
Precipitation 0.00 in - - ()
Sea Level Pressure  
Sea Level Pressure 29.57 in    
Wind  
Wind Speed 9 mph (WSW)    
Max Wind Speed 14 mph    
Max Gust Speed 25 mph    
Visibility 14 miles    
Events      
Averages and records for this station are not official NWS values.
T = Trace of Precipitation, MM = Missing Value Source: NWS Daily Summary

Daily Weather History Graph

Daily Weather History Graph

Search for Another Location

Airport or City:

Trip Planner

Search our weather history database for the weather conditions in past years. The results will help you decide how hot, cold, wet, or windy it might be!

Date:

Astronomy

Nov. 01, 2012 Rise Set
Actual Time 7:28 AM EDT 5:50 PM EDT
Civil Twilight 6:59 AM EDT 6:19 PM EDT
Nautical Twilight 6:27 AM EDT 6:52 PM EDT
Astronomical Twilight 5:54 AM EDT 7:24 PM EDT
Moon 7:44 PM EDT (11/1) 10:00 AM EDT (11/1)
Length of Visible Light 11h 19m
Length of Day
10h 21m
Waning Gibbous, 93% of the Moon is Illuminated
Nov 1
Waning Gibbous
Nov 6
Last Quarter
Nov 13
New
Nov 20
First Quarter
Nov 28
Full

Hourly Weather History & Observations

Time (EDT) Temp. Windchill Dew Point Humidity Pressure Visibility Wind Dir Wind Speed Gust Speed Precip Events Conditions
12:45 AM 44.6 °F 40.2 °F 37.4 °F 76% 29.57 in 10.0 mi SSW 8.1 mph - N/A   Mostly Cloudy
1:45 AM 44.6 °F 40.2 °F 37.4 °F 76% 29.56 in 10.0 mi SW 8.1 mph - N/A   Mostly Cloudy
5:45 AM 42.8 °F 39.3 °F 37.4 °F 81% 29.55 in 10.0 mi SSW 5.8 mph - N/A   Mostly Cloudy
6:45 AM 42.8 °F 40.1 °F 37.4 °F 81% 29.55 in 10.0 mi SW 4.6 mph - N/A   Mostly Cloudy
7:45 AM 42.8 °F 38.6 °F 37.4 °F 81% 29.56 in 15.0 mi WSW 6.9 mph - N/A   Mostly Cloudy
8:45 AM 42.8 °F 38.6 °F 39.2 °F 87% 29.57 in 15.0 mi WSW 6.9 mph - N/A   Mostly Cloudy
9:45 AM 46.4 °F 40.4 °F 39.2 °F 76% 29.57 in 20.0 mi WSW 13.8 mph - N/A   Scattered Clouds
10:45 AM 48.2 °F - 41.0 °F 76% 29.57 in 20.0 mi West 11.5 mph 18.4 mph N/A   Mostly Cloudy
11:45 AM 48.2 °F - 41.0 °F 76% 29.57 in 20.0 mi WSW 9.2 mph - N/A   Mostly Cloudy
12:45 PM 50.0 °F - 41.0 °F 71% 29.56 in 20.0 mi West 6.9 mph - N/A   Overcast
1:45 PM 50.0 °F - 41.0 °F 71% 29.55 in 20.0 mi West 13.8 mph 25.3 mph N/A   Overcast
2:45 PM 50.0 °F - 41.0 °F 71% 29.55 in 20.0 mi West 13.8 mph - N/A   Overcast
3:45 PM 48.2 °F - 41.0 °F 76% 29.56 in 20.0 mi West 13.8 mph - N/A   Light Drizzle
4:45 PM 48.2 °F - 41.0 °F 76% 29.56 in 20.0 mi West 9.2 mph - N/A   Overcast
5:45 PM 48.2 °F - 41.0 °F 76% 29.57 in 10.0 mi West 11.5 mph - N/A   Overcast
6:45 PM 46.4 °F 42.4 °F 41.0 °F 81% 29.59 in 10.0 mi WSW 8.1 mph - N/A   Overcast
7:45 PM 46.4 °F 42.4 °F 41.0 °F 81% 29.60 in 10.0 mi West 8.1 mph - N/A   Overcast
8:45 PM 46.4 °F 42.4 °F 39.2 °F 76% 29.59 in 10.0 mi West 8.1 mph - N/A   Mostly Cloudy
9:45 PM 46.4 °F 42.9 °F 39.2 °F 76% 29.60 in 10.0 mi WSW 6.9 mph - N/A   Mostly Cloudy
10:45 PM 44.6 °F 41.4 °F 39.2 °F 81% 29.60 in 10.0 mi West 5.8 mph - N/A   Overcast
11:45 PM 44.6 °F 40.7 °F 39.2 °F 81% 29.60 in 10.0 mi West 6.9 mph - N/A   Mostly Cloudy